Madison, SD

6:53 PM CST on December 05, 2019 (GMT -0600)
Madison Municipal

Weather History for KMDS - October, 2019

Change the Weather History Date:

Saturday, October 26, 2019

  Actual Average Record
Temperature  
Mean Temperature 47 °F -  
Max Temperature 59 °F 55 °F 64 °F (2014)
Min Temperature 35 °F 33 °F 26 °F (2013)
Degree Days  
Heating Degree Days 18    
Moisture  
Dew Point 33 °F    
Average Humidity 70    
Maximum Humidity 93    
Minimum Humidity 39    
Precipitation  
Precipitation 0.00 in - - ()
Sea Level Pressure  
Sea Level Pressure 29.73 in    
Wind  
Wind Speed 13 mph ()    
Max Wind Speed 23 mph    
Max Gust Speed 30 mph    
Visibility 10.0 miles    
Events      
Averages and records for this station are not official NWS values.
T = Trace of Precipitation, MM = Missing Value Source: Averaged Metar Reports

Daily Weather History Graph

Daily Weather History Graph

Search for Another Location

Airport or City:

Astronomy

Oct. 26, 2019 Rise Set
Actual Time 7:56 AM CDT 6:27 PM CDT
Civil Twilight 7:27 AM CDT 6:56 PM CDT
Nautical Twilight 6:53 AM CDT 7:30 PM CDT
Astronomical Twilight 6:19 AM CDT 8:04 PM CDT
Moon 5:47 AM CDT (10/26) 6:08 PM CDT (10/26)
Length of Visible Light 11h 29m
Length of Day
10h 30m
Waning Crescent, 3% of the Moon is Illuminated
Oct 26
Waning Crescent
Oct 27
New
Nov 4
First Quarter
Nov 12
Full
Nov 19
Last Quarter

Hourly Weather History & Observations

Time (CDT) Temp. Windchill Dew Point Humidity Pressure Visibility Wind Dir Wind Speed Gust Speed Precip Events Conditions
12:15 AM 41.0 °F 34.7 °F 32.0 °F 70% 29.91 in 10.0 mi South 10.4 mph - N/A   Clear
12:20 AM 39.2 °F 33.0 °F 32.0 °F 75% 29.91 in 10.0 mi South 9.2 mph - N/A   Clear
12:35 AM 39.2 °F 32.5 °F 32.0 °F 75% 29.91 in 10.0 mi South 10.4 mph - N/A   Clear
12:55 AM 39.2 °F 32.0 °F 32.0 °F 75% 29.89 in 10.0 mi South 11.5 mph - N/A   Clear
1:00 AM 39.2 °F 32.5 °F 32.0 °F 75% 29.89 in 10.0 mi South 10.4 mph - N/A   Clear
1:15 AM 39.2 °F 32.0 °F 32.0 °F 75% 29.88 in 10.0 mi South 11.5 mph - N/A   Clear
1:20 AM 39.2 °F 32.0 °F 32.0 °F 75% 29.88 in 10.0 mi South 11.5 mph - N/A   Clear
1:35 AM 39.2 °F 32.0 °F 32.0 °F 75% 29.88 in 10.0 mi South 11.5 mph - N/A   Clear
1:55 AM 37.4 °F 29.3 °F 32.0 °F 81% 29.87 in 10.0 mi South 12.7 mph - N/A   Clear
2:15 AM 37.4 °F 28.9 °F 32.0 °F 81% 29.86 in 10.0 mi South 13.8 mph - N/A   Clear
2:20 AM 37.4 °F 29.3 °F 32.0 °F 81% 29.86 in 10.0 mi South 12.7 mph - N/A   Clear
2:35 AM 37.4 °F 28.5 °F 32.0 °F 81% 29.85 in 10.0 mi South 15.0 mph - N/A   Clear
2:40 AM 37.4 °F 29.3 °F 32.0 °F 81% 29.85 in 10.0 mi South 12.7 mph - N/A   Clear
2:55 AM 37.4 °F 29.8 °F 32.0 °F 81% 29.84 in 10.0 mi South 11.5 mph - N/A   Clear
3:15 AM 37.4 °F 29.3 °F 32.0 °F 81% 29.84 in 10.0 mi South 12.7 mph - N/A   Clear
3:20 AM 37.4 °F 29.8 °F 32.0 °F 81% 29.83 in 10.0 mi South 11.5 mph - N/A   Clear
3:35 AM 37.4 °F 28.9 °F 32.0 °F 81% 29.83 in 10.0 mi South 13.8 mph - N/A   Clear
3:55 AM 37.4 °F 28.5 °F 32.0 °F 81% 29.82 in 10.0 mi South 15.0 mph - N/A   Clear
4:00 AM 37.4 °F 28.5 °F 32.0 °F 81% 29.82 in 10.0 mi South 15.0 mph 19.6 mph N/A   Clear
4:20 AM 37.4 °F 28.5 °F 32.0 °F 81% 29.80 in 10.0 mi South 15.0 mph 19.6 mph N/A   Clear
4:35 AM 37.4 °F 28.5 °F 32.0 °F 81% 29.80 in 10.0 mi South 15.0 mph 20.7 mph N/A   Clear
4:40 AM 37.4 °F 28.2 °F 32.0 °F 81% 29.80 in 10.0 mi South 16.1 mph - N/A   Clear
4:55 AM 37.4 °F 29.8 °F 32.0 °F 81% 29.79 in 10.0 mi South 11.5 mph - N/A   Clear
5:15 AM 37.4 °F 28.9 °F 32.0 °F 81% 29.78 in 10.0 mi South 13.8 mph - N/A   Clear
5:35 AM 37.4 °F 28.2 °F 30.2 °F 75% 29.77 in 10.0 mi South 16.1 mph 21.9 mph N/A   Clear
5:40 AM 37.4 °F 27.8 °F 30.2 °F 75% 29.77 in 10.0 mi South 17.3 mph 23.0 mph N/A   Clear
5:55 AM 37.4 °F 28.2 °F 30.2 °F 75% 29.76 in 10.0 mi South 16.1 mph - N/A   Clear
6:15 AM 37.4 °F 28.2 °F 28.4 °F 70% 29.76 in 10.0 mi South 16.1 mph 20.7 mph N/A   Clear
6:20 AM 37.4 °F 28.9 °F 28.4 °F 70% 29.76 in 10.0 mi South 13.8 mph 20.7 mph N/A   Clear
6:35 AM 37.4 °F 28.5 °F 28.4 °F 70% 29.75 in 10.0 mi South 15.0 mph - N/A   Clear
6:55 AM 35.6 °F 25.9 °F 28.4 °F 75% 29.73 in 10.0 mi South 16.1 mph 21.9 mph N/A   Clear
7:00 AM 35.6 °F 25.9 °F 28.4 °F 75% 29.73 in 10.0 mi South 16.1 mph 21.9 mph N/A   Clear
7:20 AM 35.6 °F 26.6 °F 28.4 °F 75% 29.73 in 10.0 mi South 13.8 mph 21.9 mph N/A   Clear
7:35 AM 35.6 °F 26.2 °F 28.4 °F 75% 29.72 in 10.0 mi South 15.0 mph 19.6 mph N/A   Clear
7:55 AM 35.6 °F 25.9 °F 28.4 °F 75% 29.70 in 10.0 mi South 16.1 mph 21.9 mph N/A   Clear
8:00 AM 35.6 °F 26.2 °F 28.4 °F 75% 29.70 in 10.0 mi South 15.0 mph 21.9 mph N/A   Clear
8:15 AM 37.4 °F 28.2 °F 28.4 °F 70% 29.70 in 10.0 mi South 16.1 mph - N/A   Clear
8:35 AM 37.4 °F 28.2 °F 28.4 °F 70% 29.70 in 10.0 mi South 16.1 mph 21.9 mph N/A   Clear
8:40 AM 37.4 °F 27.8 °F 28.4 °F 70% 29.70 in 10.0 mi South 17.3 mph 21.9 mph N/A   Clear
9:00 AM 39.2 °F 29.6 °F 28.4 °F 65% 29.69 in 10.0 mi South 19.6 mph 25.3 mph N/A   Clear
9:15 AM 39.2 °F 29.8 °F 30.2 °F 70% 29.69 in 10.0 mi South 18.4 mph 26.5 mph N/A   Clear
9:20 AM 39.2 °F 29.6 °F 28.4 °F 65% 29.69 in 10.0 mi South 19.6 mph 27.6 mph N/A   Clear
9:35 AM 41.0 °F 31.9 °F 28.4 °F 61% 29.69 in 10.0 mi South 19.6 mph 25.3 mph N/A   Clear
9:40 AM 41.0 °F 32.2 °F 30.2 °F 65% 29.69 in 10.0 mi South 18.4 mph - N/A   Clear
9:55 AM 41.0 °F 31.9 °F 28.4 °F 61% 29.68 in 10.0 mi South 19.6 mph 27.6 mph N/A   Clear
10:15 AM 44.6 °F 36.4 °F 30.2 °F 57% 29.68 in 10.0 mi South 20.7 mph 24.2 mph N/A   Clear
10:20 AM 44.6 °F 36.4 °F 30.2 °F 57% 29.68 in 10.0 mi South 20.7 mph 25.3 mph N/A   Clear
10:35 AM 44.6 °F 36.1 °F 32.0 °F 61% 29.67 in 10.0 mi South 21.9 mph 25.3 mph N/A   Clear
10:40 AM 44.6 °F 36.6 °F 30.2 °F 57% 29.67 in 10.0 mi South 19.6 mph 25.3 mph N/A   Clear
10:55 AM 46.4 °F 39.2 °F 32.0 °F 57% 29.66 in 10.0 mi South 18.4 mph 26.5 mph N/A   Clear
11:15 AM 48.2 °F - 32.0 °F 54% 29.66 in 10.0 mi South 20.7 mph 26.5 mph N/A   Clear
11:35 AM 48.2 °F - 32.0 °F 54% 29.65 in 10.0 mi South 20.7 mph 25.3 mph N/A   Clear
11:40 AM 50.0 °F - 32.0 °F 50% 29.65 in 10.0 mi South 18.4 mph 24.2 mph N/A   Clear
11:55 AM 50.0 °F - 32.0 °F 50% 29.65 in 10.0 mi South 20.7 mph - N/A   Clear
12:00 PM 50.0 °F - 32.0 °F 50% 29.65 in 10.0 mi South 16.1 mph - N/A   Clear
12:35 PM - - - N/A% - - North - - N/A   Unknown
12:40 PM - - - N/A% - - North - - N/A   Unknown
12:55 PM - - - N/A% - - North - - N/A   Unknown
1:00 PM - - - N/A% - - North - - N/A   Unknown
1:15 PM - - - N/A% - - North - - N/A   Unknown
1:35 PM - - - N/A% - - North - - N/A   Unknown
1:40 PM - - - N/A% - - North - - N/A   Unknown
1:55 PM - - - N/A% - - North - - N/A   Unknown
2:00 PM - - - N/A% - - North - - N/A   Unknown
2:15 PM - - - N/A% - - North - - N/A   Unknown
2:35 PM - - - N/A% - - North - - N/A   Unknown
2:55 PM - - - N/A% - - North - - N/A   Unknown
3:00 PM - - - N/A% - - North - - N/A   Unknown
3:15 PM 59.0 °F - 33.8 °F 39% 29.60 in 10.0 mi SSW 17.3 mph - N/A   Unknown
3:20 PM 59.0 °F - 33.8 °F 39% 29.60 in 10.0 mi SSW 18.4 mph - N/A   Unknown
3:35 PM 59.0 °F - 33.8 °F 39% 29.60 in 10.0 mi South 16.1 mph 23.0 mph N/A   Clear
3:40 PM 59.0 °F - 33.8 °F 39% 29.60 in 10.0 mi South 13.8 mph 23.0 mph N/A   Clear
3:55 PM 59.0 °F - 33.8 °F 39% 29.60 in 10.0 mi SSW 13.8 mph 19.6 mph N/A   Clear
4:00 PM 59.0 °F - 35.6 °F 42% 29.61 in 10.0 mi SSW 11.5 mph 19.6 mph N/A   Clear
4:15 PM 59.0 °F - 33.8 °F 39% 29.61 in 10.0 mi South 11.5 mph 20.7 mph N/A   Clear
4:20 PM 59.0 °F - 35.6 °F 42% 29.61 in 10.0 mi South 15.0 mph - N/A   Clear
4:35 PM 59.0 °F - 33.8 °F 39% 29.61 in 10.0 mi South 13.8 mph 18.4 mph N/A   Clear
4:55 PM 59.0 °F - 35.6 °F 42% 29.61 in 10.0 mi South 10.4 mph - N/A   Clear
5:15 PM 57.2 °F - 35.6 °F 44% 29.62 in 10.0 mi South 9.2 mph - N/A   Clear
5:35 PM 57.2 °F - 35.6 °F 44% 29.63 in 10.0 mi SSW 4.6 mph - N/A   Clear
5:40 PM 57.2 °F - 33.8 °F 41% 29.63 in 10.0 mi WSW 3.5 mph - N/A   Clear
5:55 PM 53.6 °F - 37.4 °F 54% 29.64 in 10.0 mi NNW 13.8 mph 24.2 mph N/A   Clear
6:15 PM 50.0 °F - 37.4 °F 62% 29.65 in 10.0 mi NNW 11.5 mph - N/A   Clear
6:35 PM 48.2 °F - 37.4 °F 66% 29.66 in 10.0 mi NNW 9.2 mph - N/A   Clear
6:40 PM 48.2 °F - 37.4 °F 66% 29.66 in 10.0 mi NNW 10.4 mph - N/A   Clear
6:55 PM 46.4 °F 41.9 °F 37.4 °F 71% 29.66 in 10.0 mi NNW 9.2 mph - N/A   Clear
7:15 PM 44.6 °F 40.2 °F 37.4 °F 76% 29.67 in 10.0 mi NNW 8.1 mph - N/A   Clear
7:35 PM 41.0 °F 33.9 °F 39.2 °F 93% 29.69 in 10.0 mi NNW 12.7 mph - N/A   Clear
7:40 PM 42.8 °F 36.2 °F 39.2 °F 87% 29.69 in 10.0 mi NNW 12.7 mph - N/A   Clear
7:55 PM 46.4 °F 41.1 °F 39.2 °F 76% 29.70 in 10.0 mi NNW 11.5 mph - N/A   Clear
8:15 PM 44.6 °F 36.4 °F 39.2 °F 81% 29.70 in 10.0 mi North 20.7 mph 27.6 mph N/A   Clear
8:20 PM 44.6 °F 36.4 °F 39.2 °F 81% 29.70 in 10.0 mi North 20.7 mph 27.6 mph N/A   Clear
8:35 PM 44.6 °F 36.4 °F 39.2 °F 81% 29.71 in 10.0 mi North 20.7 mph 27.6 mph N/A   Clear
8:55 PM 42.8 °F 33.5 °F 39.2 °F 87% 29.72 in 10.0 mi NNW 23.0 mph 28.8 mph N/A   Clear
9:15 PM 41.0 °F 31.9 °F 39.2 °F 93% 29.74 in 10.0 mi NNW 19.6 mph 29.9 mph N/A   Clear
9:20 PM 41.0 °F 32.2 °F 39.2 °F 93% 29.74 in 10.0 mi North 18.4 mph 27.6 mph N/A   Clear
9:35 PM 41.0 °F 32.2 °F 39.2 °F 93% 29.76 in 10.0 mi NNW 18.4 mph 27.6 mph N/A   Partly Cloudy
9:40 PM 41.0 °F 31.9 °F 39.2 °F 93% 29.77 in 10.0 mi NNW 19.6 mph 27.6 mph N/A   Scattered Clouds
9:55 PM 41.0 °F 31.9 °F 37.4 °F 87% 29.77 in 10.0 mi NNW 19.6 mph 28.8 mph N/A   Scattered Clouds
10:15 PM 39.2 °F 30.2 °F 37.4 °F 93% 29.78 in 10.0 mi NNW 17.3 mph - N/A   Partly Cloudy
10:20 PM 39.2 °F 30.5 °F 37.4 °F 93% 29.78 in 10.0 mi North 16.1 mph - N/A   Clear
10:35 PM 41.0 °F 32.5 °F 37.4 °F 87% 29.78 in 10.0 mi NNW 17.3 mph 23.0 mph N/A   Mostly Cloudy
10:40 PM 41.0 °F 31.9 °F 37.4 °F 87% 29.78 in 10.0 mi North 19.6 mph 24.2 mph N/A   Mostly Cloudy
10:55 PM 41.0 °F 31.4 °F 37.4 °F 87% 29.77 in 10.0 mi North 21.9 mph 26.5 mph N/A   Overcast
11:15 PM 41.0 °F 31.6 °F 35.6 °F 81% 29.76 in 10.0 mi North 20.7 mph 28.8 mph N/A   Overcast
11:40 PM 39.2 °F 29.0 °F 35.6 °F 87% 29.75 in 10.0 mi North 21.9 mph 27.6 mph N/A   Overcast
11:55 PM 39.2 °F 29.3 °F 35.6 °F 87% 29.73 in 10.0 mi NNE 20.7 mph 27.6 mph N/A   Overcast